Location: Atlantic Beach
(40.5890°N, 73.7290°W)
Time: 23:00:20
(UTC+00:00)

Hubble Space Telescope - Pass Details

Date: 22 January 2021
Orbit: 536 x 539 km, 28.5° (Epoch: 25 February)

Event Time Altitude Azimuth Distance (km) Brightness Sun altitude
Rises 00:14:42 0° 243° (WSW) 2,674 5.4 -25.4°
Reaches altitude 10° 00:17:48 10° 219° (SW) 1,783 3.9 -26.0°
Enters shadow 00:19:45 14° 191° (S) 1,519 3.2 -26.3°
